Time,TemperatureF,DewpointF,PressureIn,WindDirection,WindDirectionDegrees,WindSpeedMPH,WindSpeedGustMPH,Humidity,HourlyPrecipIn,Conditions,Clouds,dailyrainin,SoftwareType,DateUTC
2013-10-28 00:03:00,42.6,25.7,29.77,SW,226,4.0,16.0,51,0.00,,,0.00,meteohub,2013-10-28 06:03:00,
2013-10-28 00:09:00,42.3,25.3,29.77,SW,226,6.0,16.0,51,0.00,,,0.00,meteohub,2013-10-28 06:09:00,
2013-10-28 00:15:00,42.1,25.3,29.77,SW,216,6.0,16.0,51,0.00,,,0.00,meteohub,2013-10-28 06:15:00,
2013-10-28 00:21:00,41.9,25.2,29.77,SSW,210,3.0,13.0,51,0.00,,,0.00,meteohub,2013-10-28 06:21:00,
2013-10-28 00:27:00,41.5,24.8,29.77,SW,224,4.0,11.0,51,0.00,,,0.00,meteohub,2013-10-28 06:27:00,
2013-10-28 00:33:00,41.7,25.0,29.77,SW,232,7.0,11.0,51,0.00,,,0.00,meteohub,2013-10-28 06:33:00,
2013-10-28 00:39:00,41.7,25.0,29.77,SW,228,3.0,11.0,51,0.00,,,0.00,meteohub,2013-10-28 06:39:00,
2013-10-28 00:45:00,41.5,24.8,29.77,SW,228,2.0,10.0,51,0.00,,,0.00,meteohub,2013-10-28 06:45:00,
2013-10-28 00:51:00,41.4,25.0,29.77,SW,228,0.0,9.0,52,0.00,,,0.00,meteohub,2013-10-28 06:51:00,
2013-10-28 00:57:00,41.4,25.0,29.77,SW,228,1.0,7.0,52,0.00,,,0.00,meteohub,2013-10-28 06:57:00,
2013-10-28 01:03:00,41.0,24.8,29.77,SW,228,4.0,7.0,52,0.00,,,0.00,meteohub,2013-10-28 07:03:00,
2013-10-28 01:09:00,40.8,25.0,29.77,SW,228,2.0,6.0,53,0.00,,,0.00,meteohub,2013-10-28 07:09:00,
2013-10-28 01:15:00,40.8,25.0,29.77,SW,228,4.0,7.0,53,0.00,,,0.00,meteohub,2013-10-28 07:15:00,
2013-10-28 01:21:00,40.8,24.6,29.77,SW,228,1.0,6.0,52,0.00,,,0.00,meteohub,2013-10-28 07:21:00,
2013-10-28 01:27:00,40.8,24.6,29.77,SW,228,1.0,6.0,52,0.00,,,0.00,meteohub,2013-10-28 07:27:00,
2013-10-28 01:33:00,40.8,24.6,29.77,SW,228,1.0,6.0,52,0.00,,,0.00,meteohub,2013-10-28 07:33:00,
2013-10-28 01:40:00,40.6,24.8,29.77,SW,228,2.0,5.0,53,0.00,,,0.00,meteohub,2013-10-28 07:40:00,
2013-10-28 01:46:00,40.5,24.6,29.77,SW,228,3.0,7.0,53,0.00,,,0.00,meteohub,2013-10-28 07:46:00,
2013-10-28 01:52:00,40.5,24.6,29.77,SW,228,2.0,7.0,53,0.00,,,0.00,meteohub,2013-10-28 07:52:00,
2013-10-28 01:58:00,40.5,24.6,29.77,SW,228,2.0,6.0,53,0.00,,,0.00,meteohub,2013-10-28 07:58:00,
2013-10-28 02:04:00,40.6,24.8,29.77,SW,227,5.0,6.0,53,0.00,,,0.00,meteohub,2013-10-28 08:04:00,
2013-10-28 02:10:00,40.8,25.0,29.77,SW,226,7.0,8.0,53,0.00,,,0.00,meteohub,2013-10-28 08:10:00,
2013-10-28 02:16:00,41.2,25.3,29.77,SW,216,3.0,10.0,53,0.00,,,0.00,meteohub,2013-10-28 08:16:00,
2013-10-28 02:22:00,41.4,25.5,29.77,SSW,203,9.0,10.0,53,0.00,,,0.00,meteohub,2013-10-28 08:22:00,
2013-10-28 02:28:00,41.4,25.9,29.77,SSW,195,6.0,10.0,54,0.00,,,0.00,meteohub,2013-10-28 08:28:00,
2013-10-28 02:34:00,41.4,26.4,29.77,SSW,201,15.0,15.0,55,0.00,,,0.00,meteohub,2013-10-28 08:34:00,
2013-10-28 02:40:00,41.2,26.6,29.77,South,183,7.0,16.0,56,0.00,,,0.00,meteohub,2013-10-28 08:40:00,
2013-10-28 02:46:00,41.0,27.0,29.77,South,188,8.0,16.0,57,0.00,,,0.00,meteohub,2013-10-28 08:46:00,
2013-10-28 02:52:00,41.0,27.3,29.77,South,189,11.0,14.0,58,0.00,,,0.00,meteohub,2013-10-28 08:52:00,
2013-10-28 02:58:00,41.2,27.5,29.77,South,189,13.0,18.0,58,0.00,,,0.00,meteohub,2013-10-28 08:58:00,
2013-10-28 03:04:00,41.2,27.9,29.77,SSW,199,10.0,18.0,59,0.00,,,0.00,meteohub,2013-10-28 09:04:00,
2013-10-28 03:10:00,41.2,28.4,29.77,South,190,8.0,18.0,60,0.00,,,0.00,meteohub,2013-10-28 09:10:00,
2013-10-28 03:16:00,41.0,28.6,29.77,SSW,199,7.0,17.0,61,0.00,,,0.00,meteohub,2013-10-28 09:16:00,
2013-10-28 03:22:00,40.8,28.8,29.76,SSW,207,8.0,17.0,62,0.00,,,0.00,meteohub,2013-10-28 09:22:00,
2013-10-28 03:28:00,40.8,29.1,29.76,SW,214,9.0,15.0,63,0.00,,,0.00,meteohub,2013-10-28 09:28:00,
2013-10-28 03:34:00,40.8,28.8,29.76,SW,218,5.0,15.0,62,0.00,,,0.00,meteohub,2013-10-28 09:34:00,
2013-10-28 03:40:00,40.6,28.2,29.76,SW,224,6.0,15.0,61,0.00,,,0.00,meteohub,2013-10-28 09:40:00,
2013-10-28 03:46:00,40.8,28.4,29.76,SW,232,4.0,12.0,61,0.00,,,0.00,meteohub,2013-10-28 09:46:00,
2013-10-28 03:52:00,40.6,28.6,29.76,WSW,247,11.0,12.0,62,0.00,,,0.00,meteohub,2013-10-28 09:52:00,
2013-10-28 03:58:00,40.8,29.1,29.75,SW,219,9.0,12.0,63,0.00,,,0.00,meteohub,2013-10-28 09:58:00,
2013-10-28 04:04:00,40.8,29.1,29.75,SW,233,8.0,13.0,63,0.00,,,0.00,meteohub,2013-10-28 10:04:00,
2013-10-28 04:10:00,40.6,29.5,29.75,SW,234,5.0,13.0,64,0.00,,,0.00,meteohub,2013-10-28 10:10:00,
2013-10-28 04:16:00,40.6,29.5,29.75,SW,234,8.0,12.0,64,0.00,,,0.00,meteohub,2013-10-28 10:16:00,
2013-10-28 04:22:00,40.6,29.5,29.75,WSW,239,8.0,12.0,64,0.00,,,0.00,meteohub,2013-10-28 10:22:00,
2013-10-28 04:28:00,40.5,29.7,29.75,SW,221,6.0,14.0,65,0.00,,,0.00,meteohub,2013-10-28 10:28:00,
2013-10-28 04:34:00,40.3,29.5,29.74,SW,227,5.0,14.0,65,0.00,,,0.00,meteohub,2013-10-28 10:34:00,
2013-10-28 04:40:00,40.3,29.1,29.74,WSW,237,5.0,11.0,64,0.00,,,0.00,meteohub,2013-10-28 10:40:00,
2013-10-28 04:46:00,40.1,29.7,29.74,SW,220,8.0,11.0,66,0.00,,,0.00,meteohub,2013-10-28 10:46:00,
2013-10-28 04:52:00,40.3,29.8,29.74,SW,225,8.0,12.0,66,0.00,,,0.00,meteohub,2013-10-28 10:52:00,
2013-10-28 04:58:00,40.6,29.5,29.74,WSW,246,8.0,12.0,64,0.00,,,0.00,meteohub,2013-10-28 10:58:00,
2013-10-28 05:04:00,40.6,29.5,29.74,SSW,206,5.0,14.0,64,0.00,,,0.00,meteohub,2013-10-28 11:04:00,
2013-10-28 05:10:00,40.5,29.7,29.73,SW,226,7.0,14.0,65,0.00,,,0.00,meteohub,2013-10-28 11:10:00,
2013-10-28 05:16:00,40.3,29.5,29.72,SW,222,9.0,14.0,65,0.00,,,0.00,meteohub,2013-10-28 11:16:00,
2013-10-28 05:22:00,40.1,28.9,29.73,SW,220,5.0,11.0,64,0.00,,,0.00,meteohub,2013-10-28 11:22:00,
2013-10-28 05:29:00,39.9,29.5,29.73,SW,225,5.0,11.0,66,0.00,,,0.00,meteohub,2013-10-28 11:29:00,
2013-10-28 05:35:00,39.7,29.7,29.73,WSW,237,6.0,12.0,67,0.00,,,0.00,meteohub,2013-10-28 11:35:00,
2013-10-28 05:41:00,40.3,29.8,29.72,SW,220,5.0,12.0,66,0.00,,,0.00,meteohub,2013-10-28 11:41:00,
2013-10-28 05:47:00,40.1,30.0,29.73,SW,235,9.0,14.0,67,0.00,,,0.00,meteohub,2013-10-28 11:47:00,
2013-10-28 05:53:00,40.5,29.7,29.73,SW,232,10.0,14.0,65,0.00,,,0.00,meteohub,2013-10-28 11:53:00,
2013-10-28 05:59:00,40.6,29.8,29.73,SW,235,7.0,14.0,65,0.00,,,0.00,meteohub,2013-10-28 11:59:00,
2013-10-28 06:05:00,40.8,30.0,29.73,SW,222,5.0,15.0,65,0.00,,,0.00,meteohub,2013-10-28 12:05:00,
2013-10-28 06:11:00,40.8,30.0,29.73,SW,230,10.0,15.0,65,0.00,,,0.00,meteohub,2013-10-28 12:11:00,
2013-10-28 06:17:00,40.5,29.7,29.73,SW,229,4.0,14.0,65,0.00,,,0.00,meteohub,2013-10-28 12:17:00,
2013-10-28 06:23:00,40.1,29.7,29.73,SW,229,6.0,14.0,66,0.00,,,0.00,meteohub,2013-10-28 12:23:00,
2013-10-28 06:29:00,39.9,29.5,29.73,SW,220,8.0,11.0,66,0.00,,,0.00,meteohub,2013-10-28 12:29:00,
2013-10-28 06:35:00,39.9,29.5,29.73,SW,224,3.0,11.0,66,0.00,,,0.00,meteohub,2013-10-28 12:35:00,
2013-10-28 06:41:00,39.9,29.8,29.73,SW,224,3.0,9.0,67,0.00,,,0.00,meteohub,2013-10-28 12:41:00,
2013-10-28 06:47:00,40.1,30.7,29.73,SW,217,7.0,9.0,69,0.00,,,0.00,meteohub,2013-10-28 12:47:00,
2013-10-28 06:53:00,40.5,30.4,29.73,SW,224,7.0,12.0,67,0.00,,,0.00,meteohub,2013-10-28 12:53:00,
2013-10-28 06:59:00,40.3,30.2,29.73,SSW,205,6.0,13.0,67,0.00,,,0.00,meteohub,2013-10-28 12:59:00,
2013-10-28 07:05:00,40.3,30.6,29.73,SSW,203,5.0,13.0,68,0.00,,,0.00,meteohub,2013-10-28 13:05:00,
2013-10-28 07:11:00,40.5,31.1,29.73,SSW,203,7.0,10.0,69,0.00,,,0.00,meteohub,2013-10-28 13:11:00,
2013-10-28 07:17:00,40.5,31.1,29.73,SSW,199,9.0,12.0,69,0.00,,,0.00,meteohub,2013-10-28 13:17:00,
2013-10-28 07:23:00,40.5,31.1,29.73,SSW,199,8.0,13.0,69,0.00,,,0.00,meteohub,2013-10-28 13:23:00,
2013-10-28 07:29:00,40.5,31.1,29.73,South,185,6.0,13.0,69,0.00,,,0.00,meteohub,2013-10-28 13:29:00,
2013-10-28 07:35:00,40.5,31.5,29.74,SSW,195,10.0,15.0,70,0.00,,,0.00,meteohub,2013-10-28 13:35:00,
2013-10-28 07:41:00,40.5,31.5,29.74,SSW,203,13.0,15.0,70,0.00,,,0.00,meteohub,2013-10-28 13:41:00,
2013-10-28 07:47:00,40.5,31.5,29.74,SSW,200,6.0,16.0,70,0.00,,,0.00,meteohub,2013-10-28 13:47:00,
2013-10-28 07:53:00,40.5,31.5,29.74,SSW,203,8.0,16.0,70,0.00,,,0.00,meteohub,2013-10-28 13:53:00,
2013-10-28 07:59:00,40.1,31.1,29.74,South,185,7.0,16.0,70,0.00,,,0.00,meteohub,2013-10-28 13:59:00,
2013-10-28 08:05:00,39.9,31.3,29.75,South,187,9.0,16.0,71,0.00,,,0.00,meteohub,2013-10-28 14:05:00,
2013-10-28 08:11:00,39.7,31.1,29.74,South,184,12.0,16.0,71,0.00,,,0.00,meteohub,2013-10-28 14:11:00,
2013-10-28 08:17:00,39.7,31.1,29.75,SSW,193,10.0,16.0,71,0.00,,,0.00,meteohub,2013-10-28 14:17:00,
2013-10-28 08:23:00,40.1,31.8,29.75,South,190,12.0,18.0,72,0.00,,,0.00,meteohub,2013-10-28 14:23:00,
2013-10-28 08:29:00,41.2,32.2,29.75,South,179,11.0,18.0,70,0.00,,,0.00,meteohub,2013-10-28 14:29:00,
2013-10-28 08:35:00,41.7,32.0,29.75,South,189,10.0,18.0,68,0.00,,,0.00,meteohub,2013-10-28 14:35:00,
2013-10-28 08:42:00,42.3,32.5,29.75,SSE,160,15.0,18.0,68,0.00,,,0.00,meteohub,2013-10-28 14:42:00,
2013-10-28 08:48:00,42.6,32.0,29.75,South,174,10.0,18.0,66,0.00,,,0.00,meteohub,2013-10-28 14:48:00,
2013-10-28 08:54:00,43.2,32.5,29.75,South,186,13.0,17.0,66,0.00,,,0.00,meteohub,2013-10-28 14:54:00,
2013-10-28 09:00:00,43.5,32.5,29.74,SSE,168,10.0,16.0,65,0.00,,,0.00,meteohub,2013-10-28 15:00:00,
2013-10-28 09:06:00,44.1,32.7,29.75,South,180,9.0,20.0,64,0.00,,,0.00,meteohub,2013-10-28 15:06:00,
2013-10-28 09:12:00,44.2,32.4,29.74,South,182,8.0,20.0,63,0.00,,,0.00,meteohub,2013-10-28 15:12:00,
2013-10-28 09:18:00,44.6,32.4,29.74,South,185,11.0,17.0,62,0.00,,,0.00,meteohub,2013-10-28 15:18:00,
2013-10-28 09:24:00,45.3,32.2,29.74,South,181,8.0,17.0,60,0.00,,,0.00,meteohub,2013-10-28 15:24:00,
2013-10-28 09:30:00,45.9,32.0,29.74,South,184,9.0,16.0,58,0.00,,,0.00,meteohub,2013-10-28 15:30:00,
2013-10-28 09:36:00,46.4,32.0,29.73,South,186,6.0,14.0,57,0.00,,,0.00,meteohub,2013-10-28 15:36:00,
2013-10-28 09:42:00,46.9,31.6,29.73,SSW,206,6.0,12.0,55,0.00,,,0.00,meteohub,2013-10-28 15:42:00,
2013-10-28 09:48:00,47.5,31.6,29.73,South,173,5.0,12.0,54,0.00,,,0.00,meteohub,2013-10-28 15:48:00,
2013-10-28 09:54:00,47.3,31.5,29.73,South,170,12.0,16.0,54,0.00,,,0.00,meteohub,2013-10-28 15:54:00,
2013-10-28 10:00:00,47.5,31.6,29.72,South,182,9.0,17.0,54,0.00,,,0.00,meteohub,2013-10-28 16:00:00,
2013-10-28 10:06:00,47.7,31.3,29.72,South,183,8.0,20.0,53,0.00,,,0.00,meteohub,2013-10-28 16:06:00,
2013-10-28 10:12:00,48.0,31.3,29.72,South,181,17.0,20.0,52,0.00,,,0.00,meteohub,2013-10-28 16:12:00,
2013-10-28 10:18:00,48.2,30.4,29.72,South,174,6.0,18.0,50,0.00,,,0.00,meteohub,2013-10-28 16:18:00,
2013-10-28 10:24:00,48.7,31.5,29.72,South,175,15.0,19.0,51,0.00,,,0.00,meteohub,2013-10-28 16:24:00,
2013-10-28 10:30:00,48.9,31.1,29.71,South,176,8.0,19.0,50,0.00,,,0.00,meteohub,2013-10-28 16:30:00,
2013-10-28 10:36:00,49.3,30.9,29.72,SSE,158,12.0,17.0,49,0.00,,,0.00,meteohub,2013-10-28 16:36:00,
2013-10-28 10:42:00,49.6,31.3,29.71,SW,215,7.0,16.0,49,0.00,,,0.00,meteohub,2013-10-28 16:42:00,
2013-10-28 10:48:00,50.5,30.0,29.70,South,178,12.0,15.0,45,0.00,,,0.00,meteohub,2013-10-28 16:48:00,
2013-10-28 10:54:00,50.2,29.1,29.70,South,179,8.0,14.0,44,0.00,,,0.00,meteohub,2013-10-28 16:54:00,
2013-10-28 11:00:00,50.7,28.4,29.69,SSE,151,16.0,22.0,42,0.00,,,0.00,meteohub,2013-10-28 17:00:00,
2013-10-28 11:06:00,50.4,28.8,29.69,SSE,157,14.0,27.0,43,0.00,,,0.00,meteohub,2013-10-28 17:06:00,
2013-10-28 11:12:00,50.5,29.5,29.69,South,170,11.0,27.0,44,0.00,,,0.00,meteohub,2013-10-28 17:12:00,
2013-10-28 11:18:00,50.7,29.7,29.69,South,174,17.0,27.0,44,0.00,,,0.00,meteohub,2013-10-28 17:18:00,
2013-10-28 11:24:00,50.7,29.1,29.69,South,180,11.0,24.0,43,0.00,,,0.00,meteohub,2013-10-28 17:24:00,
2013-10-28 11:30:00,51.6,29.8,29.69,SSE,153,8.0,22.0,43,0.00,,,0.00,meteohub,2013-10-28 17:30:00,
2013-10-28 11:36:00,51.8,28.8,29.69,South,170,9.0,19.0,41,0.00,,,0.00,meteohub,2013-10-28 17:36:00,
2013-10-28 11:42:00,52.3,29.8,29.69,SSE,165,9.0,18.0,42,0.00,,,0.00,meteohub,2013-10-28 17:42:00,
2013-10-28 11:48:00,52.5,25.0,29.68,SSW,208,17.0,22.0,34,0.00,,,0.00,meteohub,2013-10-28 17:48:00,
2013-10-28 11:54:00,53.1,28.0,29.68,South,177,13.0,22.0,38,0.00,,,0.00,meteohub,2013-10-28 17:54:00,
2013-10-28 12:00:00,53.4,25.0,29.68,SSE,168,12.0,22.0,33,0.00,,,0.00,meteohub,2013-10-28 18:00:00,
2013-10-28 12:06:00,53.4,25.0,29.68,SSW,195,12.0,21.0,33,0.00,,,0.00,meteohub,2013-10-28 18:06:00,
2013-10-28 12:12:00,54.0,25.5,29.67,South,173,6.0,21.0,33,0.00,,,0.00,meteohub,2013-10-28 18:12:00,
2013-10-28 12:19:00,54.7,25.3,29.67,South,177,13.0,21.0,32,0.00,,,0.00,meteohub,2013-10-28 18:19:00,
2013-10-28 12:25:00,54.0,24.8,29.66,South,188,9.0,20.0,32,0.00,,,0.00,meteohub,2013-10-28 18:25:00,
2013-10-28 12:31:00,54.1,24.1,29.66,South,172,10.0,27.0,31,0.00,,,0.00,meteohub,2013-10-28 18:31:00,
2013-10-28 12:37:00,55.2,24.3,29.65,South,176,7.0,27.0,30,0.00,,,0.00,meteohub,2013-10-28 18:37:00,
2013-10-28 12:43:00,55.2,24.3,29.66,South,169,16.0,21.0,30,0.00,,,0.00,meteohub,2013-10-28 18:43:00,
2013-10-28 12:49:00,54.9,23.2,29.65,SSE,164,14.0,19.0,29,0.00,,,0.00,meteohub,2013-10-28 18:49:00,
2013-10-28 12:55:00,53.8,23.9,29.65,South,186,12.0,19.0,31,0.00,,,0.00,meteohub,2013-10-28 18:55:00,
2013-10-28 13:01:00,54.0,23.2,29.64,SSW,196,13.0,22.0,30,0.00,,,0.00,meteohub,2013-10-28 19:01:00,
2013-10-28 13:07:00,55.2,24.3,29.65,SSW,210,9.0,22.0,30,0.00,,,0.00,meteohub,2013-10-28 19:07:00,
2013-10-28 13:13:00,54.5,22.1,29.64,South,190,18.0,22.0,28,0.00,,,0.00,meteohub,2013-10-28 19:13:00,
2013-10-28 13:19:00,53.2,24.1,29.63,SSE,166,8.0,19.0,32,0.00,,,0.00,meteohub,2013-10-28 19:19:00,
2013-10-28 13:25:00,54.1,24.1,29.63,SSE,159,17.0,21.0,31,0.00,,,0.00,meteohub,2013-10-28 19:25:00,
2013-10-28 13:31:00,54.9,23.2,29.62,South,174,16.0,22.0,29,0.00,,,0.00,meteohub,2013-10-28 19:31:00,
2013-10-28 13:37:00,53.8,23.0,29.63,South,184,11.0,24.0,30,0.00,,,0.00,meteohub,2013-10-28 19:37:00,
2013-10-28 13:43:00,54.1,22.6,29.63,SSW,205,7.0,24.0,29,0.00,,,0.00,meteohub,2013-10-28 19:43:00,
2013-10-28 13:49:00,54.3,21.9,29.62,SSE,165,16.0,24.0,28,0.00,,,0.00,meteohub,2013-10-28 19:49:00,
2013-10-28 13:55:00,53.6,20.5,29.63,South,174,14.0,24.0,27,0.00,,,0.00,meteohub,2013-10-28 19:55:00,
2013-10-28 14:01:00,54.5,19.4,29.62,South,178,7.0,23.0,25,0.00,,,0.00,meteohub,2013-10-28 20:01:00,
2013-10-28 14:07:00,55.9,22.5,29.62,SSE,166,18.0,23.0,27,0.00,,,0.00,meteohub,2013-10-28 20:07:00,
2013-10-28 14:13:00,55.9,22.5,29.62,South,191,9.0,23.0,27,0.00,,,0.00,meteohub,2013-10-28 20:13:00,
2013-10-28 14:19:00,56.3,19.0,29.62,SW,219,9.0,23.0,23,0.00,,,0.00,meteohub,2013-10-28 20:19:00,
2013-10-28 14:25:00,56.5,21.9,29.62,SSW,198,8.0,23.0,26,0.00,,,0.00,meteohub,2013-10-28 20:25:00,
2013-10-28 14:31:00,56.7,20.3,29.62,SW,221,17.0,22.0,24,0.00,,,0.00,meteohub,2013-10-28 20:31:00,
2013-10-28 14:37:00,56.1,17.8,29.62,WSW,238,15.0,20.0,22,0.00,,,0.00,meteohub,2013-10-28 20:37:00,
2013-10-28 14:43:00,55.9,18.7,29.62,WSW,247,10.0,22.0,23,0.00,,,0.00,meteohub,2013-10-28 20:43:00,
2013-10-28 14:49:00,56.7,18.3,29.62,WSW,247,11.0,23.0,22,0.00,,,0.00,meteohub,2013-10-28 20:49:00,
2013-10-28 14:55:00,55.9,18.7,29.62,WSW,238,9.0,19.0,23,0.00,,,0.00,meteohub,2013-10-28 20:55:00,
2013-10-28 15:01:00,55.8,18.5,29.62,SSW,212,8.0,19.0,23,0.00,,,0.00,meteohub,2013-10-28 21:01:00,
2013-10-28 15:07:00,54.9,19.8,29.63,SSW,213,10.0,19.0,25,0.00,,,0.00,meteohub,2013-10-28 21:07:00,
2013-10-28 15:13:00,56.1,17.8,29.62,WSW,237,12.0,19.0,22,0.00,,,0.00,meteohub,2013-10-28 21:13:00,
2013-10-28 15:19:00,55.9,17.6,29.62,SSW,210,7.0,19.0,22,0.00,,,0.00,meteohub,2013-10-28 21:19:00,
2013-10-28 15:25:00,57.4,17.8,29.63,SSW,212,7.0,28.0,21,0.00,,,0.00,meteohub,2013-10-28 21:25:00,
2013-10-28 15:31:00,56.8,17.2,29.63,SSW,205,12.0,28.0,21,0.00,,,0.00,meteohub,2013-10-28 21:31:00,
2013-10-28 15:37:00,57.4,16.7,29.63,South,170,13.0,19.0,20,0.00,,,0.00,meteohub,2013-10-28 21:37:00,
2013-10-28 15:43:00,56.8,16.2,29.64,SW,234,8.0,19.0,20,0.00,,,0.00,meteohub,2013-10-28 21:43:00,
2013-10-28 15:50:00,56.7,16.0,29.63,SW,235,12.0,19.0,20,0.00,,,0.00,meteohub,2013-10-28 21:50:00,
2013-10-28 15:56:00,56.7,16.0,29.63,South,185,10.0,16.0,20,0.00,,,0.00,meteohub,2013-10-28 21:56:00,
2013-10-28 16:02:00,57.0,16.3,29.64,South,191,12.0,16.0,20,0.00,,,0.00,meteohub,2013-10-28 22:02:00,
2013-10-28 16:08:00,57.0,15.1,29.64,SSW,210,12.0,19.0,19,0.00,,,0.00,meteohub,2013-10-28 22:08:00,
2013-10-28 16:14:00,56.7,16.0,29.64,SW,230,13.0,22.0,20,0.00,,,0.00,meteohub,2013-10-28 22:14:00,
2013-10-28 16:20:00,56.7,16.0,29.64,SW,217,8.0,22.0,20,0.00,,,0.00,meteohub,2013-10-28 22:20:00,
2013-10-28 16:26:00,56.3,15.8,29.64,SSW,212,6.0,18.0,20,0.00,,,0.00,meteohub,2013-10-28 22:26:00,
2013-10-28 16:32:00,56.7,16.0,29.64,SSW,192,9.0,18.0,20,0.00,,,0.00,meteohub,2013-10-28 22:32:00,
2013-10-28 16:38:00,56.5,15.8,29.64,South,178,8.0,18.0,20,0.00,,,0.00,meteohub,2013-10-28 22:38:00,
2013-10-28 16:44:00,56.7,16.0,29.64,South,178,11.0,18.0,20,0.00,,,0.00,meteohub,2013-10-28 22:44:00,
2013-10-28 16:50:00,56.3,15.8,29.65,South,189,7.0,15.0,20,0.00,,,0.00,meteohub,2013-10-28 22:50:00,
2013-10-28 16:56:00,55.9,17.6,29.64,SSW,212,14.0,15.0,22,0.00,,,0.00,meteohub,2013-10-28 22:56:00,
2013-10-28 17:02:00,55.0,16.9,29.64,South,190,12.0,18.0,22,0.00,,,0.00,meteohub,2013-10-28 23:02:00,
2013-10-28 17:08:00,55.0,18.0,29.64,South,172,11.0,18.0,23,0.00,,,0.00,meteohub,2013-10-28 23:08:00,
2013-10-28 17:14:00,54.1,18.1,29.64,South,180,14.0,18.0,24,0.00,,,0.00,meteohub,2013-10-28 23:14:00,
2013-10-28 17:20:00,53.4,18.5,29.64,SSW,205,10.0,18.0,25,0.00,,,0.00,meteohub,2013-10-28 23:20:00,
2013-10-28 17:26:00,52.9,18.0,29.65,SSW,198,9.0,21.0,25,0.00,,,0.00,meteohub,2013-10-28 23:26:00,
2013-10-28 17:32:00,52.2,18.3,29.65,South,179,11.0,21.0,26,0.00,,,0.00,meteohub,2013-10-28 23:32:00,
2013-10-28 17:38:00,52.3,18.5,29.65,South,172,10.0,21.0,26,0.00,,,0.00,meteohub,2013-10-28 23:38:00,
2013-10-28 17:44:00,51.6,17.8,29.65,South,181,8.0,18.0,26,0.00,,,0.00,meteohub,2013-10-28 23:44:00,
2013-10-28 17:50:00,51.3,18.3,29.65,South,178,9.0,17.0,27,0.00,,,0.00,meteohub,2013-10-28 23:50:00,
2013-10-28 17:56:00,50.9,18.1,29.65,South,188,8.0,17.0,27,0.00,,,0.00,meteohub,2013-10-28 23:56:00,
2013-10-28 18:02:00,50.5,18.7,29.66,South,179,7.0,17.0,28,0.00,,,0.00,meteohub,2013-10-29 00:02:00,
2013-10-28 18:08:00,50.2,18.3,29.66,South,170,8.0,17.0,28,0.00,,,0.00,meteohub,2013-10-29 00:08:00,
2013-10-28 18:14:00,50.2,18.3,29.67,South,185,9.0,14.0,28,0.00,,,0.00,meteohub,2013-10-29 00:14:00,
2013-10-28 18:20:00,50.2,17.4,29.67,South,182,6.0,13.0,27,0.00,,,0.00,meteohub,2013-10-29 00:20:00,
2013-10-28 18:26:00,50.0,18.1,29.67,South,181,9.0,13.0,28,0.00,,,0.00,meteohub,2013-10-29 00:26:00,
2013-10-28 18:32:00,49.8,18.0,29.67,South,185,6.0,13.0,28,0.00,,,0.00,meteohub,2013-10-29 00:32:00,
2013-10-28 18:38:00,49.3,17.6,29.68,South,183,8.0,13.0,28,0.00,,,0.00,meteohub,2013-10-29 00:38:00,
2013-10-28 18:44:00,48.7,18.0,29.68,South,187,7.0,13.0,29,0.00,,,0.00,meteohub,2013-10-29 00:44:00,
2013-10-28 18:50:00,48.2,17.4,29.68,South,187,5.0,12.0,29,0.00,,,0.00,meteohub,2013-10-29 00:50:00,
2013-10-28 18:56:00,47.7,17.8,29.69,South,191,4.0,10.0,30,0.00,,,0.00,meteohub,2013-10-29 00:56:00,
2013-10-28 19:02:00,47.1,17.2,29.69,South,176,7.0,10.0,30,0.00,,,0.00,meteohub,2013-10-29 01:02:00,
2013-10-28 19:09:00,46.9,17.8,29.70,South,186,8.0,10.0,31,0.00,,,0.00,meteohub,2013-10-29 01:09:00,
2013-10-28 19:15:00,46.8,17.8,29.70,South,186,3.0,10.0,31,0.00,,,0.00,meteohub,2013-10-29 01:15:00,
2013-10-28 19:21:00,46.2,17.2,29.70,South,185,4.0,10.0,31,0.00,,,0.00,meteohub,2013-10-29 01:21:00,
2013-10-28 19:27:00,44.4,25.9,29.71,ESE,122,3.0,9.0,48,0.00,,,0.00,meteohub,2013-10-29 01:27:00,
2013-10-28 19:33:00,41.9,26.4,29.71,ESE,114,4.0,6.0,54,0.00,,,0.00,meteohub,2013-10-29 01:33:00,
2013-10-28 19:39:00,40.6,26.2,29.72,ESE,114,0.0,6.0,56,0.00,,,0.00,meteohub,2013-10-29 01:39:00,
2013-10-28 19:45:00,39.7,26.2,29.72,ESE,114,0.0,5.0,58,0.00,,,0.00,meteohub,2013-10-29 01:45:00,
2013-10-28 19:51:00,39.0,27.5,29.72,East,95,2.0,4.0,63,0.00,,,0.00,meteohub,2013-10-29 01:51:00,
2013-10-28 19:57:00,38.5,27.3,29.72,East,95,1.0,9.0,64,0.00,,,0.00,meteohub,2013-10-29 01:57:00,
2013-10-28 20:03:00,37.9,27.1,29.72,East,95,5.0,9.0,65,0.00,,,0.00,meteohub,2013-10-29 02:03:00,
2013-10-28 20:09:00,37.6,27.3,29.72,East,93,2.0,6.0,66,0.00,,,0.00,meteohub,2013-10-29 02:09:00,
2013-10-28 20:15:00,37.4,27.5,29.72,East,93,6.0,7.0,67,0.00,,,0.00,meteohub,2013-10-29 02:15:00,
2013-10-28 20:21:00,37.2,27.7,29.72,East,89,2.0,8.0,68,0.00,,,0.00,meteohub,2013-10-29 02:21:00,
2013-10-28 20:27:00,36.9,28.0,29.73,East,91,3.0,8.0,70,0.00,,,0.00,meteohub,2013-10-29 02:27:00,
2013-10-28 20:33:00,36.7,27.9,29.73,East,90,3.0,8.0,70,0.00,,,0.00,meteohub,2013-10-29 02:33:00,
2013-10-28 20:39:00,36.3,25.0,29.73,East,93,2.0,8.0,63,0.00,,,0.00,meteohub,2013-10-29 02:39:00,
2013-10-28 20:45:00,38.8,23.2,29.73,South,182,6.0,6.0,53,0.00,,,0.00,meteohub,2013-10-29 02:45:00,
2013-10-28 20:51:00,40.5,23.7,29.73,SSW,209,4.0,10.0,51,0.00,,,0.00,meteohub,2013-10-29 02:51:00,
2013-10-28 20:57:00,41.0,22.8,29.73,SSW,210,2.0,10.0,48,0.00,,,0.00,meteohub,2013-10-29 02:57:00,
2013-10-28 21:03:00,41.2,22.5,29.73,SSW,210,3.0,8.0,47,0.00,,,0.00,meteohub,2013-10-29 03:03:00,
2013-10-28 21:09:00,41.2,21.9,29.74,SSW,211,4.0,7.0,46,0.00,,,0.00,meteohub,2013-10-29 03:09:00,
2013-10-28 21:15:00,41.4,21.6,29.74,SW,221,7.0,8.0,45,0.00,,,0.00,meteohub,2013-10-29 03:15:00,
2013-10-28 21:21:00,41.2,21.4,29.74,SW,231,5.0,9.0,45,0.00,,,0.00,meteohub,2013-10-29 03:21:00,
2013-10-28 21:27:00,41.0,20.8,29.73,SSW,213,5.0,9.0,44,0.00,,,0.00,meteohub,2013-10-29 03:27:00,
2013-10-28 21:33:00,41.2,20.3,29.74,SSW,205,7.0,9.0,43,0.00,,,0.00,meteohub,2013-10-29 03:33:00,
2013-10-28 21:39:00,41.4,19.9,29.74,SSW,205,6.0,9.0,42,0.00,,,0.00,meteohub,2013-10-29 03:39:00,
2013-10-28 21:45:00,41.4,19.9,29.74,SSW,203,7.0,12.0,42,0.00,,,0.00,meteohub,2013-10-29 03:45:00,
2013-10-28 21:51:00,41.5,20.1,29.74,SSW,204,6.0,12.0,42,0.00,,,0.00,meteohub,2013-10-29 03:51:00,
2013-10-28 21:57:00,41.4,19.9,29.75,SSW,208,5.0,11.0,42,0.00,,,0.00,meteohub,2013-10-29 03:57:00,
2013-10-28 22:02:00,41.2,19.8,29.74,SSW,210,6.0,11.0,42,0.00,,,0.00,meteohub,2013-10-29 04:02:00,
2013-10-28 22:04:00,41.2,19.8,29.74,SSW,198,7.0,11.0,42,0.00,,,0.00,meteohub,2013-10-29 04:04:00,
2013-10-28 22:07:00,41.5,20.1,29.74,SSW,202,5.0,12.0,42,0.00,,,0.00,meteohub,2013-10-29 04:07:00,
2013-10-28 22:12:00,41.5,20.1,29.74,South,185,8.0,12.0,42,0.00,,,0.00,meteohub,2013-10-29 04:12:00,
2013-10-28 22:19:00,42.3,20.8,29.75,SSW,198,9.0,12.0,42,0.00,,,0.00,meteohub,2013-10-29 04:19:00,
2013-10-28 22:22:00,42.8,20.7,29.74,South,190,12.0,12.0,41,0.00,,,0.00,meteohub,2013-10-29 04:22:00,
2013-10-28 22:28:00,44.1,21.2,29.75,SSW,197,3.0,15.0,40,0.00,,,0.00,meteohub,2013-10-29 04:28:00,
2013-10-28 22:31:00,44.1,20.7,29.75,SSW,192,5.0,15.0,39,0.00,,,0.00,meteohub,2013-10-29 04:31:00,
2013-10-28 22:37:00,44.1,21.2,29.74,South,191,16.0,16.0,40,0.00,,,0.00,meteohub,2013-10-29 04:37:00,
2013-10-28 22:43:00,46.0,21.9,29.74,SW,216,7.0,16.0,38,0.00,,,0.00,meteohub,2013-10-29 04:43:00,
2013-10-28 22:49:00,46.6,21.7,29.74,SW,223,9.0,21.0,37,0.00,,,0.00,meteohub,2013-10-29 04:49:00,
2013-10-28 22:55:00,46.8,21.9,29.74,SSW,211,9.0,21.0,37,0.00,,,0.00,meteohub,2013-10-29 04:55:00,
2013-10-28 23:01:00,45.7,21.6,29.74,South,188,7.0,22.0,38,0.00,,,0.00,meteohub,2013-10-29 05:01:00,
2013-10-28 23:07:00,44.2,21.4,29.74,SSW,193,2.0,22.0,40,0.00,,,0.00,meteohub,2013-10-29 05:07:00,
2013-10-28 23:13:00,43.3,21.2,29.74,SSW,193,3.0,10.0,41,0.00,,,0.00,meteohub,2013-10-29 05:13:00,
2013-10-28 23:19:00,42.6,21.2,29.74,South,191,5.0,9.0,42,0.00,,,0.00,meteohub,2013-10-29 05:19:00,
2013-10-28 23:25:00,42.3,21.9,29.74,South,176,4.0,6.0,44,0.00,,,0.00,meteohub,2013-10-29 05:25:00,
2013-10-28 23:31:00,41.9,22.6,29.74,South,175,3.0,8.0,46,0.00,,,0.00,meteohub,2013-10-29 05:31:00,
2013-10-28 23:37:00,41.4,22.6,29.74,South,174,4.0,8.0,47,0.00,,,0.00,meteohub,2013-10-29 05:37:00,
2013-10-28 23:43:00,41.4,23.2,29.74,SSE,166,5.0,12.0,48,0.00,,,0.00,meteohub,2013-10-29 05:43:00,
2013-10-28 23:49:00,40.5,22.8,29.75,SSE,166,1.0,12.0,49,0.00,,,0.00,meteohub,2013-10-29 05:49:00,
2013-10-28 23:55:00,39.6,23.0,29.75,SSE,166,4.0,12.0,51,0.00,,,0.00,meteohub,2013-10-29 05:55:00,